Regional Weather Roundup
Issued by NWS

Home | Current Version | Previous Version | Graphics & Text | Print | Product List | Glossary On
Versions: 1 2 3 4 5 6 7 8 9 10 11 12 13 14 15 16 17 18 19 20 21 22 23 24 25 26 27 28 29 30 31 32 33 34 35 36 37 38 39 40 41 42 43 44 45 46 47 48 49 50
910
ASUS43 KIND 261609
RWRIN

WEATHER ROUNDUP FOR INDIANA
NATIONAL WEATHER SERVICE INDIANAPOLIS IN
1200 PM EDT THU MAY 26 2016

NOTE: "FAIR" INDICATES FEW OR NO CLOUDS BELOW 12,000 FEET WITH NO
SIGNIFICANT WEATHER AND/OR OBSTRUCTIONS TO VISIBILITY.

* - STATION DOES NOT REPORT WEATHER SUCH AS PRECIPITATION OR FOG.

+ - STATION NOT QUALITY CONTROLLED BY THE NATIONAL WEATHER SERVICE.
    USE DATA WITH CAUTION...ESPECIALLY DEWPOINT AND RELATIVE
    HUMIDITY OBSERVATIONS.

INZ001>003-010>013-019-020-261700-
NORTHWEST INDIANA

CITY           SKY/WX    TMP DP  RH WIND       PRES   REMARKS
GARY /AIRPORT/ CLOUDY    75  72  88 S6        29.96R
KNOX *+        CLOUDY    73  59  60 SW14      29.99R
LA PORTE +     CLOUDY    76  69  79 SW9       29.99R
MICHIGAN CITY+ CLOUDY    73  68  83 SW9G16    29.98R
MONTICELLO +   RAIN      67  63  87 W7        30.02R
RENSSELAER +   TSTM      68  64  88 SE10      29.98F
VALPARAISO     CLOUDY    73  66  78 S13G21    29.99R

$$

LMZ046-743>745-261700-
SOUTHERN LAKE MICHIGAN

STATION/POSITION TIME  TEMP    WIND        PRES    WAVE
                       AIR SEA DIR/SP/G            HT
                 (UTC) (F)     (DEG/KT/KT) (MB)    (FT)
BURNS HARBOR     1500   72     200/ 10/ 13 1014.2S
MICHIGAN CITY    1500   73     190/ 13/ 15   N/A
5NW MICH CITY    1600   65 58  190/  8/ 10   N/A     1

$$

INZ004-005-014>016-021>024-261700-
NORTH CENTRAL INDIANA

CITY           SKY/WX    TMP DP  RH WIND       PRES   REMARKS
GOSHEN         PTSUNNY   79  64  60 S12       29.98R
LOGANSPORT +   CLOUDY    72  64  78 SW18      30.04R
PERU/GRISSOM   CLOUDY    73  68  83 W13       30.01R
ROCHESTER +    PTSUNNY   77  68  73 SW7       30.02R
SOUTH BEND     CLOUDY    76  66  71 SW12      29.98R
WARSAW +       PTSUNNY   77  64  65 SW5       30.00R

$$

INZ006>009-017-018-025>027-261700-
NORTHEAST INDIANA

CITY           SKY/WX    TMP DP  RH WIND       PRES   REMARKS
ANGOLA *+      PTSUNNY   79  73  83 SW9       29.99S
AUBURN +       PTSUNNY   77  64  65 SW8       30.00S
FORT WAYNE     PTSUNNY   79  64  60 SW13      30.01R
HUNTINGTON +   CLOUDY    78  65  65 SW8       30.00R

$$

INZ028-029-035-036-043>045-051>053-261700-
WEST CENTRAL INDIANA

CITY           SKY/WX    TMP DP  RH WIND       PRES   REMARKS
CRAWFORDSVL +  LGT RAIN  66  66 100 W10       30.05R
GREENCASTLE +  LGT RAIN  68  66  94 W14G21    30.07R
LAFAYETTE      LGT RAIN  66  65  96 S5        30.02S
TERRE HAUTE    CLOUDY    65  62  90 W12G18    30.07F

$$

INZ030>032-037>040-046>048-054>057-064-065-261700-
CENTRAL INDIANA

CITY           SKY/WX    TMP DP  RH WIND       PRES   REMARKS
ANDERSON       CLOUDY    73  64  73 S12G17    30.04S
CP ATTERBURY + CLOUDY    73  64  73 S7        30.04F
COLUMBUS       PTSUNNY   73  68  83 S14       30.04F
FRANKFORT +    LGT RAIN  69  59  70 W17G25    30.07R
GREENWOOD *+   CLOUDY    73  64  73 S5        30.03F
INDIANAPOLIS   TSTM      73  67  81 S8        30.00
-EAGLE CREEK   CLOUDY    74  65  73 S7        30.02S
KOKOMO *+      CLOUDY    73  64  73 SW12      30.02R
MARION +       CLOUDY    74  65  73 SW12G17   30.03R
SHELBYVILLE    CLOUDY    75  64  68 S15       30.03F
ZIONSVILLE +   CLOUDY    73  65  77 SW9       30.04R

$$

INZ033-034-041-042-049-050-058-059-261700-
EAST CENTRAL INDIANA

CITY           SKY/WX    TMP DP  RH WIND       PRES   REMARKS
MUNCIE         CLOUDY    75  64  68 SW10      30.03R

$$

INZ060-061-067>069-081>083-085>088-261700-
SOUTHWEST INDIANA

CITY           SKY/WX    TMP DP  RH WIND       PRES   REMARKS
EVANSVILLE     PTSUNNY   76  66  71 NW26G32   30.08R
HUNTINGBURG *+ PTSUNNY   81  70  69 SW12      30.04F
WASHINGTON +   TSTM      69  64  86 NW18G38   30.12R

$$

INZ062-063-066-070>080-084-089>092-261700-
SOUTH CENTRAL AND SOUTHEAST INDIANA

CITY           SKY/WX    TMP DP  RH WIND       PRES   REMARKS
BLOOMINGTON    CLOUDY    77  66  68 SW12      30.03F
MADISON *+     PTSUNNY   77  63  61 S9        30.10S
NORTH VERNON + CLOUDY    75  72  88 S9G16     30.06F

$$





USA.gov is the U.S. government's official web portal to all federal, state and local government web resources and services.